AirNav   Everest Fuels
 
 641 users online  

KMLE Millard Airport
Omaha, Nebraska, USA

GOING TO OMAHA?


FAA INFORMATION EFFECTIVE 20 MAY 2021

Location

FAA Identifier: MLE
Lat/Long: 41-11-45.5500N 096-06-44.1530W
41-11.759167N 096-06.735883W
41.1959861,-96.1122647
(estimated)
Elevation: 1050.7 ft. / 320.3 m (surveyed)
Variation: 06E (1990)
From city: 7 miles SW of OMAHA, NE
Time zone: UTC -5 (UTC -6 during Standard Time)
Zip code: 68137

Airport Operations

Airport use: Open to the public
Control tower: no
ARTCC: MINNEAPOLIS CENTER
FSS: COLUMBUS FLIGHT SERVICE STATION
NOTAMs facility: MLE (NOTAM-D service available)
Attendance: 0630-2100
FOR SVC AFT 2100 CALL 402-953-9905 OR 402-690-3099.
Wind indicator: lighted
Segmented circle: no
Lights: ACTVT MIRL RY 12/30 & REIL RY 12 - CTAF.
Beacon: white-green (lighted land airport)
Operates sunset to sunrise.
International operations: customs landing rights airport

Airport Communications

CTAF/UNICOM: 123.0
WX AWOS-3: 118.25 (402-895-6778)
OMAHA APPROACH: 120.1
OMAHA DEPARTURE: 120.1
CLEARANCE DELIVERY: 125.4
WX ASOS at OMA (12 nm NE): PHONE 402-271-7515
WX AWOS-3 at BTA (13 nm N): 120.225 (402-426-0448)
WX AWOS-3 at CBF (16 nm E): 126.575 (712-323-1542)
WX AWOS-3 at PMV (17 nm SE): 118.975 (402-298-7524)
  • A CONTINUOUS TRANSCRIBED BROADCAST FOR MILLARD ARPT WHICH INCLUDES TEMPERATURE / DEWPOINT / WIND SPEED AND DIRECTION; AND ALTIMETER SETTING IS AVAILABLE ON FREQ 118.25 OR BY TELEPHONE (402) 895-6778.

Nearby radio navigation aids

VOR radial/distance  VOR name  Freq  Var
OVRr268/17.0OMAHA VORTAC116.3008E
LNKr051/32.8LINCOLN VORTAC116.1009E
SCBr131/33.8SCRIBNER VOR/DME111.0006E

 
NDB name  Hdg/Dist  Freq  Var  ID
PLATTSMOUTH324/17.632905EPMV .--. -- ...-
WAHOO091/22.140006EAHQ .- .... --.-
NEBRASKA CITY337/37.234705EAFK .- ..-. -.-

Airport Services

Fuel available: 100LL JET-A1+
Parking: hangars and tiedowns
Airframe service: MAJOR
Powerplant service: MAJOR
Bottled oxygen: HIGH/LOW
Bulk oxygen: HIGH/LOW

Runway Information

Runway 12/30

Dimensions: 3801 x 75 ft. / 1159 x 23 m
Surface: asphalt, in good condition
Weight bearing capacity: 
Single wheel: 25.0
Double wheel: 28.0
Runway edge lights: medium intensity
RUNWAY 12  RUNWAY 30
Latitude: 41-11.955133N41-11.563217N
Longitude: 096-07.058867W096-06.412900W
Elevation: 1050.6 ft.1046.0 ft.
Traffic pattern: leftleft
Runway heading: 123 magnetic, 129 true303 magnetic, 309 true
Displaced threshold: 212 ft.no
Declared distances: TORA:3801 TODA:3801 ASDA:3801 LDA:3588TORA:3801 TODA:3801 ASDA:3588 LDA:3801
Markings: nonprecision, in good conditionnonprecision, in good condition
Visual slope indicator: 2-light PAPI on left (3.08 degrees glide path)2-light PAPI on left (3.08 degrees glide path)
Runway end identifier lights: yes
Touchdown point: yes, no lightsyes, no lights
Obstructions: 17 ft. road, 410 ft. from runway, 285 ft. right of centerline, 12:1 slope to clear
APCH RATIO 36:1 FROM DSPLCD THR
62 ft. pole, 1633 ft. from runway, 30 ft. left of centerline, 23:1 slope to clear

Airport Ownership and Management from official FAA records

Ownership: Publicly-owned
Owner: OMAHA AIRPORT AUTHORITY
4501 ABBOTT DRIVE, SUITE 2300
OMAHA, NE 68110-2689
Phone 402-661-8000
Manager: DAVID ROTH
4501 ABBOTT DRIVE, SUITE 2300
OMAHA, NE 68110-2689
Phone 402-661-8000

Airport Operational Statistics

Aircraft based on the field: 122
Single engine airplanes: 111
Multi engine airplanes: 7
Helicopters: 3
Gliders airplanes: 1
    
Aircraft operations: avg 66/day *
59% transient general aviation
35% local general aviation
6% air taxi
<1% military
* for 12-month period ending 09 May 2018

Additional Remarks

MIL JETS OVERFLYING AT 3000 FT MSL.
AFTER TKOF ON RY 30 ALTER HDG 20 DEGS TO THE R TO AVOID NOISE SENSITIVE AREA.
NORMAL CALM & CROSS WIND TKOFS & LNDGS OF RY 12; NO INTXN TKOFS.
RADIO CONTROLLED ACFT OCCASIONAL OPERATION 1.7 MI SW OF ARPT.
VFR ACFT REQUESTING FLIGHT FLWG & IFR ACFT SHOULD CONTACT OMAHA APCH ON FREQ 125.4 PRIOR TO TAKING THE RY FOR CLNC/TRAFFIC ADVISORIES/GEN INFO.
DEER ON & INVOF ARPT.
SELF-SVC FUEL AVBL 24 HRS WITH CREDIT CARD.

Instrument Procedures

NOTE: All procedures below are presented as PDF files. If you need a reader for these files, you should download the free Adobe Reader.

NOT FOR NAVIGATION. Please procure official charts for flight.
FAA instrument procedures published for use from 20 May 2021 at 0901Z to 17 June 2021 at 0900z.

 
IAPs - Instrument Approach Procedures
RNAV (GPS) RWY 12   download (225KB)
RNAV (GPS) RWY 30   download (194KB)
NOTE: Special Alternate Minimums apply   download (15KB)
NOTE: Special Take-Off Minimums/Departure Procedures apply   download (147KB)

Other nearby airports with instrument procedures:

KOFF - Offutt Air Force Base (10 nm SE)
KOMA - Eppley Airfield (12 nm NE)
KBTA - Blair Municipal Airport (13 nm N)
KCBF - Council Bluffs Municipal Airport (16 nm E)
KPMV - Plattsmouth Municipal Airport/Douglas V Duey Field (17 nm SE)
 
Loc | Ops | Rwys | IFR | FBO | Links
Com | Nav | Svcs | Stats | Notes
Area around KMLE (Millard Airport)
 
Road maps at: MapQuest Bing Google
 
Aerial photo
WARNING: Photo may not be current or correct
Aerial photo of KMLE (Millard Airport)
Photo by Vicki Eifert
Photo taken 18-Aug-2017
looking northwest.

Do you have a better or more recent aerial photo of Millard Airport that you would like to share? If so, please send us your photo.

 
Sectional chart

 
Airport diagram
CAUTION: Diagram may not be current
Diagram of KMLE (Millard Airport)
 
Airport distance calculator
Flying to Millard Airport? Find the distance to fly.

From to KMLE

Sunrise and sunset
Times for 13-Jun-2021
 Local
(UTC-5)
 Zulu
(UTC)
Morning civil twilight05:1810:18
Sunrise05:5210:52
Sunset20:5701:57
Evening civil twilight21:3102:31

Current date and time
Zulu (UTC)  13-Jun-2021 12:09:01
Local (UTC-5)  13-Jun-2021 07:09:01
 
METAR
KMLE 131135Z AUTO 00000KT 10SM CLR 16/14 A3010 RMK AO2 T01560141
KOFF 
10nm SE 
131156Z AUTO 00000KT 10SM CLR 16/15 A3009 RMK AO2 SLP187 T01640146 10192 20150 PWINO PNO FZRANO TSNO VISNO RWY12 CHINO RWY12 $
KOMA 
12nm NE 
131052Z 00000KT 10SM FEW250 15/14 A3008 RMK AO2 SLP178 T01500139
KBTA 
13nm N 
131135Z AUTO 00000KT 10SM CLR 18/11 A3009 RMK AO2 T01840105
KCBF 
16nm E 
131135Z AUTO 00000KT 10SM CLR 18/11 A3009 RMK AO2
KPMV 
17nm SE 
131135Z AUTO 00000KT 10SM CLR 18/12 A3010 RMK AO2 T01760123
TAF
KOMA 
12nm NE 
131120Z 1312/1412 VRB04KT P6SM FEW250 FM131500 17005KT P6SM SKC FM131800 18010KT P6SM FEW040 FM140100 18006KT P6SM FEW250 FM141000 VRB04KT P6SM BKN250
NOTAMs
Click for the latest NOTAMs
NOTAMs are issued by the DoD/FAA and will open in a separate window not controlled by AirNav.

 

 
 

FBO, Fuel Providers, and Aircraft Ground Support

  
 Business Name 
 
 Contact 
 
 Services / Description 
 
Fuel Prices
 
Comments
  
Oracle Aviation 402-934-5300
no information available

If you are affiliated with Oracle Aviation and would like to show here your services, contact info, web link, logo, and more, click here
100LL Jet A
FS $5.59 $4.19 
SS $5.34 $3.94 
 Updated 03-Jun-2021
 
   2 read write
FS=Full service
SS=Self service
Update Fuel Prices
 

Would you like to see your business listed on this page?

 If your business provides an interesting product or service to pilots, flight crews, aircraft, or users of the Millard Airport, you should consider listing it here.  To start the listing process, click on the button below
 
Add a business
 

Other Pages about Millard Airport

Update a link
 
Copyright © AirNav, LLC. All rights reserved. Privacy Policy  Contact